Flag for U.S.A. Weather past 2 weeks in Sevierville, Tennessee, U.S.A.

Now
66 °F

Passing clouds.


Feels Like: 66 °F
Forecast: 54 / 81 °F
Wind: No wind

Location: McGhee Tyson Airport

Current Time: Jul 29, 2014 at 11:04:50 PM

Latest Report: Jul 29, 2014 at 9:53 PM


Visibility: 10 mi

Pressure: 30.05 "Hg

Humidity: 63%

Dew point: 53 °F

Location of SeviervilleLocation

Historic Weather in Sevierville — Graph

°F

Sevierville temperature yesterday

Maximum temperature yesterday: 81 °F (at 3:53 PM)
Minimum temperature yesterday: 68 °F (at 5:53 AM)
Average temperature yesterday: 74 °F

Past Weeks' High & Low Weather Summary

 TemperatureHumidityPressure
High90 °F (Jul 27, 4:53 PM)100% (Jul 18, 11:59 PM)30.16 "Hg (Jul 18, 11:59 PM)
Low57 °F (Jul 17, 4:53 AM)36% (Jul 16, 6:53 PM)29.79 "Hg (Jul 27, 5:53 PM)
Average73 °F76%29.99 "Hg
* Reported Jul 14 11:01 PM — Jul 29 9:53 PM, Sevierville, Weather by CustomWeather, © 2014

Note: Actual official high and low records may vary slightly from our data, if they occured in-between our weather recording intervals... More about our weather records

Advertising

Sevierville weather history for previous 24 hours

 ConditionsComfort  
Time TempWeatherWind HumidityBarometerVisibility
9:53 PM
Jul 29
66 °FPassing clouds.No wind63%30.05 "Hg10 mi
8:53 PM68 °FPassing clouds.7 mph55%30.04 "Hg10 mi
7:53 PM71 °FPassing clouds.10 mph47%30.03 "Hg10 mi
6:53 PM73 °FPassing clouds.10 mph44%30.01 "Hg10 mi
5:53 PM75 °FScattered clouds.8 mph45%30.00 "Hg10 mi
4:53 PM75 °FScattered clouds.10 mph48%29.98 "Hg10 mi
3:53 PM77 °FScattered clouds.7 mph45%29.98 "Hg10 mi
2:53 PM75 °FScattered clouds.9 mph52%29.99 "Hg10 mi
1:53 PM75 °FScattered clouds.6 mph52%30.00 "Hg10 mi
12:53 PM73 °FScattered clouds.3 mph55%30.01 "Hg10 mi
11:53 AM71 °FScattered clouds.No wind61%30.03 "Hg10 mi
10:53 AM70 °FPartly sunny.3 mph68%30.01 "Hg10 mi
9:53 AM68 °FPartly sunny.6 mph73%30.00 "Hg10 mi
8:53 AM66 °FPartly sunny.7 mph78%29.99 "Hg10 mi
7:53 AM64 °FPassing clouds.5 mph87%29.98 "Hg10 mi
6:53 AM63 °FPassing clouds.3 mph87%29.97 "Hg10 mi
5:53 AM62 °FClear.3 mph90%29.96 "Hg10 mi
4:53 AM66 °FPassing clouds.3 mph78%29.96 "Hg10 mi
3:53 AM64 °FPassing clouds.No wind84%29.95 "Hg10 mi
2:53 AM67 °FOvercast.3 mph76%29.96 "Hg10 mi
1:53 AM68 °FOvercast.5 mph73%29.96 "Hg10 mi
12:53 AM69 °FPassing clouds.6 mph70%29.97 "Hg10 mi
11:53 PM
Jul 28
69 °FPassing clouds.5 mph70%29.97 "Hg10 mi
Weather by CustomWeather, © 2014

See weather overviewHow to use our weather pages